DW6963 Weather Reports


Display with metric or nautical units.
time (UTC)temp
F
wind
direction
speed
MPH
gust
MPH
rain 1hr
in
rain 24hr
in
rain mn
in
humidity
%
barometer
mb
20260507191412 58 0 0.0 0.0 0.00 0.00 0.00 44 1014.0
20260507190911 58 0 0.0 0.0 0.00 0.00 0.00 45 1014.1
20260507190412 58 0 0.0 0.0 0.00 0.00 0.00 47 1014.1
20260507185911 58 0 0.0 0.0 0.00 0.00 0.00 50 1014.1
20260507185412 57 0 0.0 0.0 0.00 0.00 0.00 48 1014.0
20260507184911 57 0 0.0 0.0 0.00 0.00 0.00 47 1014.1
20260507184411 57 0 0.0 0.0 0.00 0.00 0.00 50 1014.4
20260507183911 57 0 0.0 0.0 0.00 0.00 0.00 47 1014.3
20260507183411 57 0 0.0 0.0 0.00 0.00 0.00 46 1014.2
20260507182911 57 0 0.0 0.0 0.00 0.00 0.00 46 1014.2
20260507182412 57 0 0.0 0.0 0.00 0.00 0.00 49 1014.2
20260507181911 57 0 0.0 0.0 0.00 0.00 0.00 47 1014.2
20260507175912 56 0 0.0 0.0 0.00 0.00 0.00 50 1014.3
20260507175412 56 0 0.0 0.0 0.00 0.00 0.00 49 1014.4
20260507174911 56 0 0.0 0.0 0.00 0.00 0.00 47 1014.4
20260507174411 56 0 0.0 0.0 0.00 0.00 0.00 45 1014.6
20260507173911 56 0 0.0 0.0 0.00 0.00 0.00 49 1014.5
20260507173411 56 0 0.0 0.0 0.00 0.00 0.00 49 1014.6
20260507172411 55 0 0.0 0.0 0.00 0.00 0.00 51 1014.7
20260507171912 55 0 0.0 0.0 0.00 0.00 0.00 47 1014.8
20260507170411 55 0 0.0 0.0 0.00 0.00 0.00 48 1015.0
20260507165911 55 0 0.0 0.0 0.00 0.00 0.00 49 1015.1
20260507165411 55 0 0.0 0.0 0.00 0.00 0.00 49 1015.1
20260507164412 54 0 0.0 0.0 0.00 0.00 0.00 50 1015.1
20260507163911 54 0 0.0 0.0 0.00 0.00 0.00 49 1015.1
20260507163412 54 0 0.0 0.0 0.00 0.00 0.00 51 1015.2
20260507162911 54 0 0.0 0.0 0.00 0.00 0.00 51 1015.1
20260507162412 54 0 0.0 0.0 0.00 0.00 0.00 49 1015.2
20260507161911 54 0 0.0 0.0 0.00 0.00 0.00 51 1015.2
20260507161411 54 0 0.0 0.0 0.00 0.00 0.00 51 1015.2
20260507160911 54 0 0.0 0.0 0.00 0.00 0.00 52 1015.2
20260507155911 54 0 0.0 0.0 0.00 0.00 0.00 49 1015.1
20260507153911 53 0 0.0 0.0 0.00 0.00 0.00 49 1015.2
20260507153411 53 0 0.0 0.0 0.00 0.00 0.00 55 1015.1
20260507152912 52 0 0.0 0.0 0.00 0.00 0.00 53 1015.1
20260507151411 52 0 0.0 0.0 0.00 0.00 0.00 53 1014.9
20260507150911 52 0 0.0 0.0 0.00 0.00 0.00 55 1014.9
20260507145911 52 0 0.0 0.0 0.00 0.00 0.00 55 1015.0
20260507145411 52 0 0.0 0.0 0.00 0.00 0.00 54 1014.9
20260507144912 52 0 0.0 0.0 0.00 0.00 0.00 54 1014.9
20260507144411 52 0 0.0 0.0 0.00 0.00 0.00 54 1015.0
20260507143912 51 0 0.0 0.0 0.00 0.00 0.00 55 1015.0
20260507143412 51 0 0.0 0.0 0.00 0.00 0.00 56 1015.0
20260507142411 51 0 0.0 0.0 0.00 0.00 0.00 58 1015.0
20260507141911 51 0 0.0 0.0 0.00 0.00 0.00 58 1015.0
20260507141411 51 0 0.0 0.0 0.00 0.00 0.00 59 1015.0
20260507140912 51 0 0.0 0.0 0.00 0.00 0.00 56 1015.1
20260507140411 51 0 0.0 0.0 0.00 0.00 0.00 61 1015.1
20260507135911 51 0 0.0 0.0 0.00 0.00 0.00 62 1015.1
20260507135411 50 0 0.0 0.0 0.00 0.00 0.00 59 1015.1
20260507134911 50 0 0.0 0.0 0.00 0.00 0.00 62 1015.0
20260507134411 50 0 0.0 0.0 0.00 0.00 0.00 60 1015.1
20260507133911 50 0 0.0 0.0 0.00 0.00 0.00 60 1015.1
20260507132912 49 0 0.0 0.0 0.00 0.00 0.00 64 1015.1
20260507132411 48 0 0.0 0.0 0.00 0.00 0.00 65 1015.1
20260507131911 48 0 0.0 0.0 0.00 0.00 0.00 67 1015.2
20260507131411 48 0 0.0 0.0 0.00 0.00 0.00 72 1015.1
20260507130911 47 0 0.0 0.0 0.00 0.00 0.00 74 1015.1
20260507130412 47 0 0.0 0.0 0.00 0.00 0.00 76 1015.1
20260507125412 46 0 0.0 0.0 0.00 0.00 0.00 82 1015.1
20260507124912 45 0 0.0 0.0 0.00 0.00 0.00 87 1015.2
20260507122911 43 0 0.0 0.0 0.00 0.00 0.00 91 1015.4
20260507122411 43 0 0.0 0.0 0.00 0.00 0.00 92 1015.3
20260507121911 42 0 0.0 0.0 0.00 0.00 0.00 92 1015.2
20260507121412 42 0 0.0 0.0 0.00 0.00 0.00 92 1015.3
20260507120911 42 0 0.0 0.0 0.00 0.00 0.00 92 1015.3
20260507115912 41 0 0.0 0.0 0.00 0.00 0.00 92 1015.2
20260507115411 40 0 0.0 0.0 0.00 0.00 0.00 92 1015.2
20260507114911 40 0 0.0 0.0 0.00 0.00 0.00 92 1015.3
20260507114412 39 0 0.0 0.0 0.00 0.00 0.00 92 1015.3
20260507113412 38 0 0.0 0.0 0.00 0.00 0.00 91 1015.2
20260507112911 37 0 0.0 0.0 0.00 0.00 0.00 91 1015.2
20260507111911 36 0 0.0 0.0 0.00 0.00 0.00 91 1015.1
20260507111411 36 0 0.0 0.0 0.00 0.00 0.00 91 1015.0
20260507110911 36 0 0.0 0.0 0.00 0.00 0.00 91 1014.9
20260507110411 36 0 0.0 0.0 0.00 0.00 0.00 91 1014.8
20260507105412 36 0 0.0 0.0 0.00 0.00 0.00 91 1014.7
20260507104912 35 0 0.0 0.0 0.00 0.00 0.00 91 1014.7
20260507104411 35 0 0.0 0.0 0.00 0.00 0.00 90 1014.7
20260507103912 35 0 0.0 0.0 0.00 0.00 0.00 91 1014.6
20260507103412 36 0 0.0 0.0 0.00 0.00 0.00 90 1014.6
20260507102411 36 0 0.0 0.0 0.00 0.00 0.00 91 1014.6
20260507101912 36 0 0.0 0.0 0.00 0.00 0.00 91 1014.6
20260507101411 36 0 0.0 0.0 0.00 0.00 0.00 91 1014.6
20260507100911 36 0 0.0 0.0 0.00 0.00 0.00 91 1014.6
20260507100412 36 0 0.0 0.0 0.00 0.00 0.00 91 1014.6
20260507095911 36 0 0.0 0.0 0.00 0.00 0.00 91 1014.6
20260507095411 36 0 0.0 0.0 0.00 0.00 0.00 91 1014.6
20260507094411 36 0 0.0 0.0 0.00 0.00 0.00 91 1014.6
20260507093911 37 0 0.0 0.0 0.00 0.00 0.00 91 1014.6
20260507093411 37 0 0.0 0.0 0.00 0.00 0.00 91 1014.5
20260507092411 36 0 0.0 0.0 0.00 0.00 0.00 90 1014.5
20260507091911 36 0 0.0 0.0 0.00 0.00 0.00 90 1014.4
20260507090911 36 0 0.0 0.0 0.00 0.00 0.00 90 1014.4
20260507090412 37 0 0.0 0.0 0.00 0.00 0.00 90 1014.4
20260507085411 37 0 0.0 0.0 0.00 0.00 0.00 90 1014.2
20260507084911 37 0 0.0 0.0 0.00 0.00 0.00 90 1014.2
20260507084412 37 0 0.0 0.0 0.00 0.00 0.00 90 1014.3
20260507083911 37 0 0.0 0.0 0.00 0.00 0.00 90 1014.3
20260507083411 38 0 0.0 0.0 0.00 0.00 0.00 90 1014.2
20260507082911 38 0 0.0 0.0 0.00 0.00 0.00 90 1014.2
20260507082411 38 0 0.0 0.0 0.00 0.00 0.00 90 1014.1
20260507081912 38 0 0.0 0.0 0.00 0.00 0.00 90 1014.2
20260507081411 38 0 0.0 0.0 0.00 0.00 0.00 90 1014.2
20260507080912 38 0 0.0 0.0 0.00 0.00 0.00 90 1014.2
20260507080411 38 0 0.0 0.0 0.00 0.00 0.00 90 1014.1
20260507075912 38 0 0.0 0.0 0.00 0.00 0.00 90 1014.2
20260507075411 38 0 0.0 0.0 0.00 0.00 0.00 90 1014.2
20260507074411 39 0 0.0 0.0 0.00 0.00 0.00 90 1014.2
20260507073912 39 0 0.0 0.0 0.00 0.00 0.00 90 1014.2
20260507073411 39 0 0.0 0.0 0.00 0.00 0.00 90 1014.2
20260507072912 39 0 0.0 0.0 0.00 0.00 0.00 90 1014.2
20260507072412 39 0 0.0 0.0 0.00 0.00 0.00 90 1014.2
20260507071911 39 0 0.0 0.0 0.00 0.00 0.00 90 1014.2
20260507071412 39 0 0.0 0.0 0.00 0.00 0.00 90 1014.2
20260507070911 39 0 0.0 0.0 0.00 0.00 0.00 90 1014.2
20260507070412 39 0 0.0 0.0 0.00 0.00 0.00 90 1014.1
20260507065911 39 0 0.0 0.0 0.00 0.00 0.00 89 1014.2
20260507065411 40 0 0.0 0.0 0.00 0.00 0.00 89 1014.3
20260507064911 40 0 0.0 0.0 0.00 0.00 0.00 89 1014.3
20260507064412 40 0 0.0 0.0 0.00 0.00 0.00 89 1014.4
20260507063911 40 0 0.0 0.0 0.00 0.00 0.00 89 1014.3
20260507063411 40 0 0.0 0.0 0.00 0.00 0.00 89 1014.3
20260507062912 41 0 0.0 0.0 0.00 0.00 0.00 89 1014.3
20260507062411 41 0 0.0 0.0 0.00 0.00 0.00 90 1014.3
20260507061411 41 0 0.0 0.0 0.00 0.00 0.00 90 1014.3
20260507060911 41 0 0.0 0.0 0.00 0.00 0.00 90 1014.3
20260507060412 41 0 0.0 0.0 0.00 0.00 0.00 89 1014.3
20260507055911 41 0 0.0 0.0 0.00 0.00 0.00 89 1014.4
20260507054411 41 0 0.0 0.0 0.00 0.00 0.00 89 1014.5
20260507053911 42 0 0.0 0.0 0.00 0.00 0.00 89 1014.4
20260507053412 42 0 0.0 0.0 0.00 0.00 0.00 89 1014.4
20260507052911 42 0 0.0 0.0 0.00 0.00 0.00 89 1014.3
20260507051412 42 0 0.0 0.0 0.00 0.00 0.00 89 1014.6
20260507050911 42 0 0.0 0.0 0.00 0.00 0.00 89 1014.6
20260507050412 42 0 0.0 0.0 0.00 0.00 0.00 89 1014.7
20260507045911 42 0 0.0 0.0 0.00 0.00 0.00 89 1014.7
20260507045412 42 0 0.0 0.0 0.00 0.00 0.00 88 1014.7
20260507044911 42 0 0.0 0.0 0.00 0.00 0.00 88 1014.6
20260507044411 42 0 0.0 0.0 0.00 0.00 0.00 88 1014.5
20260507043912 42 0 0.0 0.0 0.00 0.00 0.00 88 1014.5
20260507043412 42 0 0.0 0.0 0.00 0.00 0.00 88 1014.5
20260507042911 42 0 0.0 0.0 0.00 0.00 0.00 88 1014.5
20260507042412 42 0 0.0 0.0 0.00 0.00 0.00 88 1014.5
20260507041911 42 0 0.0 0.0 0.00 0.00 0.00 87 1014.5
20260507041411 43 0 0.0 0.0 0.00 0.00 0.00 87 1014.5
20260507040912 43 0 0.0 0.0 0.00 0.00 0.00 87 1014.5
20260507035912 43 0 0.0 0.0 0.00 0.00 0.00 86 1014.4
20260507035411 43 0 0.0 0.0 0.00 0.00 0.00 86 1014.4
20260507034911 43 0 0.0 0.0 0.00 0.00 0.00 86 1014.5
20260507034412 43 0 0.0 0.0 0.00 0.00 0.00 86 1014.6
20260507033912 44 0 0.0 0.0 0.00 0.00 0.00 86 1014.6
20260507033411 44 0 0.0 0.0 0.00 0.00 0.00 85 1014.7
20260507032912 44 0 0.0 0.0 0.00 0.00 0.00 85 1014.7
20260507032411 44 0 0.0 0.0 0.00 0.00 0.00 85 1014.7
20260507031911 44 0 0.0 0.0 0.00 0.00 0.00 85 1014.6
20260507031412 44 0 0.0 0.0 0.00 0.00 0.00 85 1014.7
20260507030911 45 0 0.0 0.0 0.00 0.00 0.00 84 1014.7
20260507030412 45 0 0.0 0.0 0.00 0.00 0.00 84 1014.9
20260507025911 45 0 0.0 0.0 0.00 0.00 0.00 84 1014.9
20260507025412 45 0 0.0 0.0 0.00 0.00 0.00 84 1014.8
20260507024911 45 0 0.0 0.0 0.00 0.00 0.00 84 1014.8
20260507024411 45 0 0.0 0.0 0.00 0.00 0.00 84 1014.8
20260507023911 45 0 0.0 0.0 0.00 0.00 0.00 83 1014.7
20260507023412 45 0 0.0 0.0 0.00 0.00 0.00 83 1014.7
20260507022911 45 0 0.0 0.0 0.00 0.00 0.00 82 1014.7
20260507022412 45 0 0.0 0.0 0.00 0.00 0.00 82 1014.7
20260507021911 46 0 0.0 0.0 0.00 0.00 0.00 81 1014.6
20260507021412 46 0 0.0 0.0 0.00 0.00 0.00 81 1014.6
20260507020911 46 0 0.0 0.0 0.00 0.00 0.00 80 1014.6
20260507020412 46 0 0.0 0.0 0.00 0.00 0.00 80 1014.5
20260507015912 47 0 0.0 0.0 0.00 0.00 0.00 79 1014.4
20260507015411 47 0 0.0 0.0 0.00 0.00 0.00 78 1014.3
20260507014912 48 0 0.0 0.0 0.00 0.00 0.00 78 1014.2
20260507014411 48 0 0.0 0.0 0.00 0.00 0.00 76 1014.2
20260507013912 48 0 0.0 0.0 0.00 0.00 0.00 75 1014.2
20260507013411 49 0 0.0 0.0 0.00 0.00 0.00 74 1014.1
20260507012912 49 0 0.0 0.0 0.00 0.00 0.00 74 1013.9
20260507012411 49 0 0.0 0.0 0.00 0.00 0.00 72 1013.9
20260507011912 50 0 0.0 0.0 0.00 0.00 0.00 71 1014.1
20260507011411 50 0 0.0 0.0 0.00 0.00 0.00 71 1014.1
20260507010411 50 0 0.0 0.0 0.00 0.00 0.00 71 1014.0
20260507005912 50 0 0.0 0.0 0.00 0.00 0.00 69 1014.0
20260507005411 51 0 0.0 0.0 0.00 0.00 0.00 68 1013.9
20260507004912 52 0 0.0 0.0 0.00 0.00 0.00 67 1014.0
20260507004411 52 0 0.0 0.0 0.00 0.00 0.00 66 1014.0
20260507003912 53 0 0.0 0.0 0.00 0.00 0.00 63 1013.9
20260507003411 53 0 0.0 0.0 0.00 0.00 0.00 61 1013.8
20260507002912 53 0 0.0 0.0 0.00 0.00 0.00 61 1013.8
20260507002412 54 0 0.0 0.0 0.00 0.00 0.00 59 1013.9
20260507001911 54 0 0.0 0.0 0.00 0.00 0.00 59 1013.6
20260507001412 54 0 0.0 0.0 0.00 0.00 0.00 58 1013.5
20260507000911 54 0 0.0 0.0 0.00 0.00 0.00 59 1013.5
20260507000412 54 0 0.0 0.0 0.00 0.00 0.00 59 1013.4
20260506235912 55 0 0.0 0.0 0.00 0.00 0.00 59 1013.3
20260506235412 55 0 0.0 0.0 0.00 0.00 0.00 58 1013.4
20260506234411 55 0 0.0 0.0 0.00 0.00 0.00 58 1013.2
20260506233912 55 0 0.0 0.0 0.00 0.00 0.00 58 1013.2
20260506233411 56 0 0.0 0.0 0.00 0.00 0.00 57 1013.2
20260506232912 56 0 0.0 0.0 0.00 0.00 0.00 57 1013.2
20260506231912 56 0 0.0 0.0 0.00 0.00 0.00 56 1013.1
20260506231411 56 0 0.0 0.0 0.00 0.00 0.00 56 1013.1
20260506230912 56 0 0.0 0.0 0.00 0.00 0.00 58 1013.2
20260506230411 56 0 0.0 0.0 0.00 0.00 0.00 57 1013.2
20260506225411 56 0 0.0 0.0 0.00 0.00 0.00 57 1013.2
20260506224411 56 0 0.0 0.0 0.00 0.00 0.00 55 1013.4
20260506223912 56 0 0.0 0.0 0.00 0.00 0.00 56 1013.4
20260506223411 56 0 0.0 0.0 0.00 0.00 0.00 57 1013.3
20260506222912 56 0 0.0 0.0 0.00 0.00 0.00 57 1013.5
20260506221912 56 0 0.0 0.0 0.00 0.00 0.00 58 1013.6
20260506221412 56 0 0.0 0.0 0.00 0.00 0.00 58 1013.7
20260506220911 56 0 0.0 0.0 0.00 0.00 0.00 57 1013.6
20260506215911 56 0 0.0 0.0 0.00 0.00 0.00 58 1013.6
20260506215412 56 0 0.0 0.0 0.00 0.00 0.00 57 1013.5
20260506214911 57 0 0.0 0.0 0.00 0.00 0.00 59 1013.5
20260506213911 57 0 0.0 0.0 0.00 0.00 0.00 59 1013.3
20260506213412 57 0 0.0 0.0 0.00 0.00 0.00 57 1013.2
20260506212911 57 0 0.0 0.0 0.00 0.00 0.00 58 1013.1
20260506212412 57 0 0.0 0.0 0.00 0.00 0.00 57 1012.9
20260506211911 57 0 0.0 0.0 0.00 0.00 0.00 58 1012.9
20260506211412 57 0 0.0 0.0 0.00 0.00 0.00 56 1012.9
20260506210412 58 0 0.0 0.0 0.00 0.00 0.00 55 1012.9
20260506205911 58 0 0.0 0.0 0.00 0.00 0.00 56 1012.8
20260506205412 58 0 0.0 0.0 0.00 0.00 0.00 56 1012.8
20260506204911 58 0 0.0 0.0 0.00 0.00 0.00 56 1012.7
20260506204412 58 0 0.0 0.0 0.00 0.00 0.00 56 1012.9
20260506203911 58 0 0.0 0.0 0.00 0.00 0.00 56 1012.9
20260506202911 57 0 0.0 0.0 0.00 0.00 0.00 55 1012.8
20260506202412 57 0 0.0 0.0 0.00 0.00 0.00 55 1012.8
20260506201911 58 0 0.0 0.0 0.00 0.00 0.00 55 1012.9
20260506201412 58 0 0.0 0.0 0.00 0.00 0.00 54 1012.9
20260506200911 58 0 0.0 0.0 0.00 0.00 0.00 56 1012.8
20260506200412 58 0 0.0 0.0 0.00 0.00 0.00 55 1012.8
20260506195911 58 0 0.0 0.0 0.00 0.00 0.00 55 1012.7
20260506195412 58 0 0.0 0.0 0.00 0.00 0.00 57 1012.7
20260506194412 58 0 0.0 0.0 0.00 0.00 0.00 56 1012.7
20260506193911 59 0 0.0 0.0 0.00 0.00 0.00 56 1012.7
20260506193412 59 0 0.0 0.0 0.00 0.00 0.00 55 1012.6
20260506192911 59 0 0.0 0.0 0.00 0.00 0.00 55 1012.6
20260506192412 59 0 0.0 0.0 0.00 0.00 0.00 56 1012.6